TimeCST,TemperatureF,Dew PointF,Humidity,Sea Level PressureIn,VisibilityMPH,Wind Direction,Wind SpeedMPH,Gust SpeedMPH,PrecipitationIn,Events,Conditions,WindDirDegrees,DateUTC
12:56 AM,36.0,26.1,67,29.75,-9999.0,NW,3.5,-,N/A,,Unknown,320,2012-12-06 06:56:00
1:56 AM,35.1,26.1,70,29.76,-9999.0,NW,4.6,-,N/A,,Unknown,310,2012-12-06 07:56:00
2:56 AM,35.1,25.0,67,29.78,-9999.0,NNW,8.1,-,N/A,,Unknown,330,2012-12-06 08:56:00
3:56 AM,37.9,26.1,62,29.79,-9999.0,WNW,4.6,-,N/A,,Unknown,300,2012-12-06 09:56:00
4:56 AM,39.9,27.0,60,29.81,-9999.0,NNW,15.0,-,N/A,,Unknown,330,2012-12-06 10:56:00
5:56 AM,37.9,28.0,68,29.86,-9999.0,NW,18.4,-,N/A,,Unknown,320,2012-12-06 11:56:00
6:56 AM,37.0,28.9,73,29.87,-9999.0,NW,15.0,-,N/A,,Unknown,310,2012-12-06 12:56:00
7:56 AM,37.9,28.9,70,29.90,-9999.0,NNW,19.6,-,N/A,,Unknown,330,2012-12-06 13:56:00
8:56 AM,37.0,28.0,70,29.92,-9999.0,NW,19.6,-,N/A,,Unknown,320,2012-12-06 14:56:00
9:56 AM,37.0,28.0,70,29.93,-9999.0,NNW,20.7,28.8,N/A,,Unknown,330,2012-12-06 15:56:00
10:56 AM,39.0,28.9,67,29.95,-9999.0,NNW,19.6,24.2,N/A,,Unknown,330,2012-12-06 16:56:00
11:56 AM,39.0,26.1,60,29.94,-9999.0,NNW,25.3,-,N/A,,Unknown,340,2012-12-06 17:56:00
12:56 PM,39.9,25.0,55,29.94,-9999.0,NNW,20.7,29.9,N/A,,Unknown,330,2012-12-06 18:56:00
1:56 PM,39.0,21.0,49,29.97,-9999.0,North,20.7,-,N/A,,Unknown,350,2012-12-06 19:56:00
2:56 PM,39.0,21.0,49,29.98,-9999.0,NNW,20.7,-,N/A,,Unknown,330,2012-12-06 20:56:00
3:56 PM,36.0,21.0,55,30.00,-9999.0,NNW,17.3,-,N/A,,Unknown,340,2012-12-06 21:56:00
4:56 PM,30.0,19.9,66,30.02,-9999.0,North,9.2,-,N/A,,Unknown,350,2012-12-06 22:56:00
5:56 PM,23.0,16.0,74,30.04,-9999.0,NW,4.6,-,N/A,,Unknown,320,2012-12-06 23:56:00
6:56 PM,25.0,19.0,78,30.05,-9999.0,West,6.9,-,N/A,,Unknown,280,2012-12-07 00:56:00
7:56 PM,24.1,19.0,81,30.06,-9999.0,West,5.8,-,N/A,,Unknown,280,2012-12-07 01:56:00
8:56 PM,19.0,16.0,88,30.06,-9999.0,North,4.6,-,N/A,,Unknown,360,2012-12-07 02:56:00
9:56 PM,19.9,17.1,89,30.07,-9999.0,Calm,Calm,-,N/A,,Unknown,0,2012-12-07 03:56:00
10:56 PM,21.9,19.0,89,30.07,-9999.0,WSW,3.5,-,N/A,,Unknown,240,2012-12-07 04:56:00
11:56 PM,25.0,21.0,85,30.07,-9999.0,WSW,5.8,-,N/A,,Unknown,250,2012-12-07 05:56:00